Location: Kershaw
(34.5481°N, 80.5823°W)
Time: 03:37:34
(UTC+00:00)

Tiros 1 despin weight - Pass Details

Date: 05 October 2022
Orbit: 590 x 637 km, 48.2° (Epoch: 30 November)

Event Time Altitude Azimuth Distance (km) Brightness Sun altitude
Rises 22:12:29 0° 290° (WNW) 2,846 ? 9.0°
Reaches altitude 10° 22:15:36 10° 313° (NW) 1,955 ? 8.4°
Maximum altitude 22:18:20 16° 351° (N) 1,626 ? 7.8°
Drops below altitude 10° 22:21:05 10° 28° (NNE) 1,976 ? 7.3°
Sets 22:24:16 0° 51° (NE) 2,894 ? 6.6°
